Helicity
28 16 29 38 13 -16 28 27 43 32 98 35 5 15 65 51 29 48 44 52 56 75 51 64 90 78 61 50 45 51 66 81 98 113 105 109 125 145 168 173 197 218 219 205
30 16 52 70 53 37 44 47 52 118 98 47 25 20 32 75 50 57 57 59 74 89 88 101 127 105 69 54 51 67 72 100 122 142 147 157 173 188 219 225 222 218 225 229
14 94 78 43 54 44 42 34 31 13 100 50 66 48 96 74 57 51 48 49 68 115 125 119 128 106 68 63 61 83 111 136 164 182 158 178 180 194 222 242 288 266 298 271
34 87 49 34 34 9 56 46 64 67 59 22 81 4 148 116 83 69 62 61 71 120 95 94 104 99 87 115 152 146 186 207 228 216 244 239 202 232 284 283 304 343 286 282
66 42 45 38 19 26 73 72 58 68 39 65 66 47 2 124 76 71 69 68 61 70 82 61 100 61 211 146 192 209 234 255 254 244 231 209 217 242 273 294 310 311 238 244
81 89 67 18 114 70 97 63 55 47 41 46 24 45 12 69 41 60 77 19 15 30 30 36 110 170 158 193 208 237 244 247 225 211 205 205 205 228 252 250 240 215 284 246
45 47 91 68 82 87 40 39 51 55 77 65 101 55 -11 105 73 60 47 41 73 70 52 64 86 128 193 213 233 228 246 224 190 179 175 174 191 194 184 198 196 208 152 118
48 74 63 72 19 33 26 29 102 117 102 82 54 55 109 62 44 36 43 65 76 58 45 87 121 189 223 226 248 238 219 189 166 161 149 153 171 187 175 174 143 107 99 94
63 61 102 91 62 30 89 61 64 69 70 64 43 68 24 40 42 21 24 38 55 65 106 125 199 219 245 239 240 227 186 150 136 120 131 145 156 145 137 102 106 87 94 117
32 92 42 62 48 51 43 80 78 69 102 70 52 55 38 63 40 39 33 31 49 129 140 192 219 236 233 229 207 177 146 129 106 120 137 142 123 121 111 95 78 67 73 97
6 54 58 50 39 31 85 54 51 81 98 75 81 41 103 43 48 54 28 43 98 138 199 220 224 226 235 217 181 143 127 107 105 124 122 112 107 110 98 91 72 57 51 62
17 67 49 38 102 77 17 9 39 63 70 59 51 38 78 66 67 64 44 123 194 213 252 209 219 238 202 162 133 128 120 104 112 112 108 108 101 105 100 94 62 35 35 48
109 89 81 60 91 76 73 51 29 23 47 65 86 30 99 108 107 138 139 194 226 228 226 239 218 191 159 130 112 98 107 124 96 101 97 114 109 110 87 53 25 39 27 56
132 109 105 101 32 26 56 9 39 46 46 33 37 28 28 99 96 146 172 164 176 211 230 193 163 142 109 98 92 106 122 100 79 88 109 127 124 82 50 42 20 24 44 51
238 166 126 67 30 50 43 25 41 50 27 40 25 59 47 130 116 149 142 176 210 213 170 153 132 100 99 97 112 111 90 72 92 104 123 121 83 36 29 22 12 13 32 26
248 187 142 210 135 42 54 38 38 60 44 84 39 53 49 150 172 158 185 227 225 149 142 126 104 105 107 103 86 67 71 95 100 118 99 73 41 28 26 21 5 21 19 24
218 185 175 66 37 80 72 67 94 86 92 67 50 50 183 116 150 189 195 148 158 136 131 119 111 94 92 81 63 79 87 99 107 82 65 36 33 42 35 8 5 5 28 20
159 204 198 82 104 109 117 172 96 76 85 75 75 103 102 183 247 181 120 139 143 140 123 102 89 98 79 69 81 93 108 94 63 45 13 20 40 31 38 24 18 30 31 73
56 131 178 167 122 99 141 124 145 114 63 55 63 116 196 215 189 185 152 150 152 130 108 97 99 68 77 78 92 99 82 57 39 24 17 19 35 19 24 62 93 54 75 95
92 91 136 141 151 126 36 90 98 113 97 67 94 102 118 132 83 188 132 139 129 117 107 99 64 84 80 95 77 59 43 41 74 29 52 24 12 -3 26 47 6 87 144 141
72 88 94 110 81 80 141 109 109 125 136 84 62 91 120 139 190 166 159 144 126 115 92 62 80 77 68 51 46 49 41 61 35 30 15 17 -7 19 38 35 17 38 63 129
110 118 116 134 197 150 262 162 243 210 132 49 53 118 223 169 157 133 127 115 104 88 72 61 81 69 50 35 29 28 45 28 20 10 -7 -14 -9 9 4 21 21 18 69 63
81 73 82 75 75 154 224 278 236 265 427 102 87 158 127 146 114 104 99 97 84 75 59 69 72 39 33 30 14 16 -0 -0 5 -24 -20 -21 -5 -10 -13 15 9 -2 62 52
49 59 57 39 26 30 93 206 303 224 288 14 91 116 113 115 88 97 93 76 64 60 71 65 36 34 30 4 -5 -19 -17 1 7 -20 5 4 1 -6 -14 -7 8 14 54 46
64 52 43 22 19 23 23 55 29 49 -16 68 104 113 119 76 81 78 72 63 65 67 64 48 31 9 -23 -32 -26 -24 -8 14 1 -2 -4 -17 -6 4 24 11 28 12 11 -7
26 35 45 50 63 50 68 56 52 -19 45 83 124 132 77 77 70 65 56 56 58 63 56 49 45 17 -34 -22 -13 -8 6 15 8 -1 -1 23 23 9 11 18 62 63 27 -42
Wind_Speed
17 15 6 3 7 19 17 8 6 10 21 6 9 10 10 8 17 10 11 14 15 14 8 4 5 8 12 18 22 26 32 39 44 47 50 49 47 51 53 54 58 60 61 68
21 24 16 17 11 10 7 7 9 18 19 13 13 13 12 9 17 17 14 12 13 10 10 10 10 12 16 22 25 31 38 42 45 47 50 50 52 55 59 62 62 63 68 75
33 27 18 11 9 9 10 12 15 22 18 20 28 20 14 15 14 14 15 14 14 16 15 14 13 15 20 27 33 39 42 46 48 53 51 52 54 55 61 65 70 74 81 86
33 24 20 15 14 14 20 21 25 24 24 30 20 37 15 14 19 17 16 18 18 17 15 14 13 17 25 33 35 38 42 46 50 55 55 62 65 71 74 77 78 86 88 91
29 24 22 20 21 17 31 24 27 30 32 41 29 38 39 17 25 21 19 24 20 16 14 14 14 18 28 31 35 39 42 47 51 56 61 68 73 76 81 83 88 90 89 85
36 29 28 29 25 25 20 26 28 32 32 33 31 32 40 24 31 30 27 24 21 16 8 6 16 23 27 31 36 40 45 50 56 62 68 74 80 87 90 91 92 91 91 90
27 24 23 19 21 22 21 25 34 32 27 35 32 34 40 33 32 31 25 22 18 13 8 8 15 22 30 35 40 45 52 58 63 70 77 82 87 90 89 92 92 96 89 83
31 29 20 16 21 24 19 31 35 38 36 31 31 41 34 31 29 27 23 19 16 15 14 19 23 26 32 38 44 50 58 65 71 78 82 84 87 88 85 85 85 81 77 74
34 33 21 23 24 29 27 35 39 41 46 52 44 37 35 27 27 23 17 16 15 16 20 20 24 29 34 40 48 56 64 69 77 83 86 88 87 85 81 81 79 74 73 75
35 36 28 23 21 27 31 19 31 34 45 48 37 45 46 29 25 22 18 17 14 17 18 21 26 31 37 44 52 59 67 75 81 84 85 85 83 80 81 79 76 73 72 72
38 41 32 26 30 26 25 29 33 37 41 47 53 46 30 28 34 27 22 20 14 18 19 23 28 34 42 50 57 65 73 79 81 81 80 80 79 80 78 75 75 73 73 72
38 43 51 41 36 40 40 34 24 36 39 38 49 53 32 29 36 29 32 28 22 20 22 25 31 40 48 56 64 71 76 78 77 77 77 78 78 77 75 76 75 72 74 70
37 49 55 48 42 40 45 40 40 38 44 45 44 48 33 34 33 32 33 25 22 21 24 31 38 47 55 63 69 74 76 77 76 77 77 77 76 76 76 76 69 74 79 67
45 56 51 60 57 45 37 45 37 37 48 46 47 49 46 36 36 33 27 22 20 24 30 36 45 52 60 66 72 76 76 76 76 76 77 76 75 74 74 69 72 79 80 75
34 53 62 71 67 64 55 51 42 42 46 52 53 56 50 41 37 29 23 21 23 28 35 43 51 59 65 70 75 75 76 76 77 77 75 74 72 70 70 69 75 78 72 76
49 73 72 78 72 65 63 63 57 46 46 48 55 53 43 37 28 24 21 21 26 32 40 48 56 63 68 72 74 75 75 76 75 74 72 68 67 67 67 72 74 74 75 75
48 61 65 82 75 83 71 58 47 44 44 46 51 51 31 29 24 21 20 23 28 35 44 53 59 64 67 70 73 74 72 72 71 68 65 63 61 56 68 71 71 72 74 70
42 49 51 72 54 72 58 47 40 46 46 43 40 40 31 21 22 22 22 25 31 38 48 54 59 63 65 68 69 67 70 68 65 62 61 61 63 67 67 69 68 61 60 21
39 47 56 60 69 67 47 39 34 33 43 32 32 27 17 14 17 23 27 29 35 41 48 53 57 59 64 65 65 64 64 64 62 59 60 64 61 65 62 21 22 34 31 34
36 41 52 62 67 81 74 39 36 34 45 26 23 10 4 9 14 18 22 28 36 43 49 52 55 59 60 62 60 61 63 61 60 60 62 62 60 59 39 53 66 11 6 8
38 49 61 63 76 72 49 35 20 30 39 20 9 3 5 10 26 18 23 30 38 43 47 49 53 56 56 56 57 61 62 63 58 56 59 60 62 44 35 22 36 31 29 22
42 45 49 53 62 74 52 38 38 43 38 16 11 4 9 14 18 21 24 31 37 41 46 47 50 51 52 53 56 63 66 61 56 57 55 55 48 41 52 44 31 27 16 19
36 36 41 41 53 52 44 48 46 35 44 24 7 5 6 12 16 20 25 31 36 40 43 45 47 49 51 53 55 62 63 58 53 52 49 57 54 59 58 40 40 37 22 12
23 27 40 40 46 49 49 45 51 39 35 21 1 8 10 13 17 21 25 30 34 38 40 42 45 49 51 51 54 59 59 55 56 58 48 56 58 58 50 40 35 30 32 26
29 22 38 50 51 39 39 40 32 28 22 7 9 8 11 15 18 21 24 29 32 34 36 40 45 49 49 50 54 58 55 53 61 61 62 62 61 36 20 29 31 41 49 53
21 39 45 50 44 34 34 22 9 3 10 15 13 12 15 18 20 21 25 28 30 31 34 38 42 46 47 49 50 55 50 49 58 61 60 56 10 22 20 15 17 55 61 61
Wind_Direction
339 331 322 328 173 309 322 326 325 333 323 265 251 249 313 195 177 186 173 175 180 191 201 257 300 323 334 336 338 341 343 344 343 342 340 340 339 339 337 336 335 333 331 329
325 309 329 330 331 326 322 323 321 331 325 318 305 276 268 236 205 206 207 211 215 245 249 258 293 308 318 329 334 337 337 337 339 339 337 336 335 333 331 330 329 328 327 325
300 322 326 333 334 324 318 312 315 316 327 313 315 300 273 274 252 236 238 248 262 271 262 261 285 303 319 325 331 334 337 338 339 340 340 339 336 333 332 331 329 326 324 322
302 316 310 305 303 309 311 317 316 314 311 310 314 303 251 280 274 253 254 265 271 272 257 262 282 306 322 328 336 339 342 343 345 345 343 339 335 331 331 328 326 324 322 320
310 303 299 295 298 306 315 322 317 314 311 307 309 307 307 306 300 285 279 290 282 257 257 265 295 315 334 337 341 345 347 347 347 345 342 337 333 331 330 328 325 324 323 322
296 309 302 298 308 305 321 319 316 314 311 308 305 304 314 304 313 314 315 314 315 313 286 280 331 335 338 344 346 347 345 344 343 341 339 336 333 331 329 328 327 326 326 325
298 291 303 303 304 307 305 312 310 313 308 311 324 314 302 326 328 327 331 333 344 1 9 352 337 338 339 341 343 343 342 339 339 338 336 334 333 332 331 331 330 329 330 331
296 286 277 287 283 301 288 300 306 307 309 321 322 313 323 335 336 336 338 344 356 358 355 344 340 340 343 343 342 341 340 337 337 336 335 335 334 334 334 334 334 334 335 335
301 292 312 297 293 289 296 291 300 299 302 303 308 321 323 335 339 343 349 347 346 351 346 348 348 347 347 345 343 340 339 337 336 335 335 335 336 336 337 336 337 338 337 336
301 298 301 304 303 300 287 312 300 297 302 304 314 313 315 335 340 345 345 344 348 355 353 351 352 351 349 346 343 342 340 338 336 336 337 337 337 338 337 337 339 339 339 340
282 288 299 298 290 289 291 284 294 302 302 304 305 318 338 336 337 340 342 341 341 344 350 351 353 352 348 346 344 342 341 339 339 339 340 340 340 339 339 341 341 342 341 343
279 286 278 283 293 289 285 290 287 292 300 306 305 308 339 337 332 336 336 340 344 349 350 353 352 349 347 345 343 343 342 342 343 343 343 341 341 342 343 343 343 344 343 346
282 278 274 274 287 288 282 281 284 293 297 298 305 317 342 341 338 337 336 345 348 352 353 352 350 347 345 343 343 343 345 345 346 345 343 343 344 344 345 345 349 346 340 350
285 279 274 271 277 289 276 280 279 280 288 298 302 310 322 330 329 337 345 353 359 356 352 350 348 347 344 344 344 345 347 348 347 347 345 346 346 346 347 350 347 342 341 347
288 284 281 274 276 277 279 281 278 277 286 291 304 310 319 326 329 338 350 358 358 356 353 349 346 343 345 345 346 348 349 350 349 347 349 349 349 350 350 353 346 343 356 350
281 267 279 278 282 277 277 278 278 278 287 294 301 308 319 331 340 344 351 357 357 355 350 347 345 346 347 348 350 350 352 352 351 352 353 355 356 356 355 348 345 353 358 355
287 276 271 271 275 271 274 278 276 279 287 293 300 311 326 330 340 351 0 4 360 354 350 346 349 350 352 353 353 355 356 355 357 359 1 4 8 17 359 343 357 357 356 344
291 285 280 273 268 271 290 291 277 280 288 294 305 314 324 341 353 6 15 9 2 356 350 353 353 354 356 357 0 2 1 3 5 9 13 14 9 0 1 358 354 337 340 336
291 285 279 275 273 278 292 291 288 285 290 293 303 319 341 14 32 9 8 13 4 359 359 358 359 1 1 4 7 9 10 10 13 17 17 6 16 360 352 337 56 326 326 333
295 285 277 273 277 273 273 286 288 289 290 294 305 323 31 77 348 3 19 15 5 3 2 3 6 6 11 13 17 17 15 19 20 20 346 19 13 354 322 337 7 332 12 357
294 285 274 272 267 268 285 291 291 283 296 310 316 350 79 357 349 40 29 10 6 6 7 11 13 16 21 24 25 22 21 20 23 23 353 21 4 328 320 315 327 324 326 324
298 291 287 278 270 269 290 282 272 282 290 305 311 357 352 17 31 35 24 9 8 9 11 17 22 27 27 28 28 20 21 24 28 20 353 349 337 329 343 335 328 327 320 323
307 300 297 287 279 282 289 273 270 292 289 299 284 333 32 37 32 40 14 10 11 14 19 27 33 32 31 32 31 22 23 32 37 344 338 5 20 22 2 333 337 337 329 332
316 309 299 298 292 283 278 281 275 283 305 280 327 81 58 42 43 30 13 13 17 22 29 39 37 35 33 35 34 25 30 38 36 2 28 30 26 26 356 337 335 335 337 334
326 313 304 292 292 298 287 281 273 278 272 114 95 64 49 45 34 28 16 16 22 32 42 42 39 39 39 39 35 28 37 44 28 22 21 17 22 333 316 329 337 354 2 6
309 299 294 288 303 308 298 294 307 104 125 114 96 66 47 44 38 29 12 19 31 42 47 45 42 42 41 38 35 33 43 49 36 24 29 48 332 324 324 317 116 49 46 28